Skip Page Navigation
NASA JPL Caltech
NASA Logo - Jet Propulsion Laboratory + View the NASA Portal
+ Near-Earth Object (NEO) Program
Search JPL
JPL Home Earth Solar System Stars & Galaxies Technology
JPL Solar System Dynamics
BODIES ORBITS EPHEMERIDES TOOLS PHYSICAL DATA DISCOVERY FAQ SITE MAP
JPL Small-Body Database Browser
Search: [ help ]  
(2008 DK5)
Classification: Apollo [NEO, PHA]          SPK-ID: 3404366
Ephemeris | Orbit Diagram | Orbital Elements | Physical Parameters | Close-Approach Data ]

[ hide orbit diagram ]
Orbit Diagram
Note: Make sure you have Java enabled on your browser to see the applet. This applet is provided as a 3D orbit visualization tool. The applet was implemented using 2-body methods, and hence should not be used for determining accurate long-term trajectories (over several years or decades) or planetary encounter circumstances. For accurate long-term ephemerides, please instead use our Horizons system.
Orbit Viewer

Additional Notes: the orbits shown in the applet are color coded. The planets are white lines, and the asteroid/comet is a blue line. The bright white line indicates the portion of the orbit that is above the ecliptic plane, and the darker portion is below the ecliptic plane. Likewise for the asteroid/comet orbit, the light blue indicates the portion above the ecliptic plane, and the dark blue the portion below the ecliptic plane.

Orbit Viewer applet originally written and kindly provided by Osamu Ajiki (AstroArts), and further modified by Ron Baalke (JPL).


Orbital Elements at Epoch 2456400.5 (2013-Apr-18.0) TDB
Reference: JPL 19 (heliocentric ecliptic J2000)
 Element Value Uncertainty (1-sigma)   Units 
e .6150968321827158 4.4501e-07  
a 1.554948107349473 1.3757e-07 AU
q .5985044523103026 7.2755e-07 AU
i 4.27553477382995 3.0146e-05 deg
node 345.8813027740017 4.6092e-05 deg
peri 80.70007701588693 9.597e-05 deg
M 261.920446734936 0.00013439 deg
tp 2456593.451542713812
(2013-Oct-27.95154271)
0.0002899 JED
period 708.2266697243914
1.94
9.3991e-05
2.573e-07
d
yr
n .508311837705992 6.7459e-08 deg/d
Q 2.511391762388643 2.222e-07 AU
  Orbit Determination Parameters
   # obs. used (total)      137  
   data-arc span      767 days (2.10 yr)  
   first obs. used      2008-02-28  
   last obs. used      2010-04-05  
   planetary ephem.      DE405  
   SB-pert. ephem.      SB405-CPV-2  
   condition code      1  
   fit RMS      .61854  
   data source      ORB  
   producer      Otto Matic  
   solution date      2013-Jan-28 00:50:41  

Additional Information
 Earth MOID = .00900051 AU 
 T_jup = 4.206 
[ show covariance matrix ]

Ephemeris | Orbit Diagram | Orbital Elements | Physical Parameters | Close-Approach Data ]

Physical Parameter Table
Parameter Symbol Value Units Sigma Reference Notes
absolute magnitude H 21.197 mag .62765 19 autocmod 2.5b

[ show close-approach data ]
Ephemeris | Orbit Diagram | Orbital Elements | Physical Parameters | Close-Approach Data ]
ABOUT SSD CREDITS/AWARDS PRIVACY/COPYRIGHT GLOSSARY LINKS
FirstGov 2013-May-24 10:27 UT
(server date/time)  
NASA Home Page
Site Manager:   Donald K. Yeomans
Webmaster  Alan B. Chamberlin